Regional Weather Roundup
Issued by NWS Newport/Morehead, NC

Current Version | Previous Version | Text Only | Print | Product List | Glossary On
Versions: 1 2 3 4 5 6 7 8 9 10 11 12 13 14 15 16 17 18 19 20 21 22 23 24 25 26 27 28 29 30 31 32 33 34 35 36 37 38 39 40 41 42 43 44 45 46 47 48 49 50
000 ASUS42 KMHX 231525 RWRMHX WEATHER ROUNDUP FOR EASTERN NORTH CAROLINA NATIONAL WEATHER SERVICE NEWPORT/MOREHEAD CITY NC 1100 AM EDT MON OCT 23 2017 NOTE: "FAIR" INDICATES FEW OR NO CLOUDS BELOW 12,000 FEET WITH NO SIGNIFICANT WEATHER AND/OR OBSTRUCTIONS TO VISIBILITY NCZ015>017-031-032-045>047-102-103-231600- NORTH COAST CITY SKY/WX TMP DP RH WIND PRES REMARKS EDENTON MOSUNNY 78 65 64 SE9G16 30.18F ELIZABETH CITY SUNNY 78 64 61 SE10 30.19F KITTY HAWK MOSUNNY 77 62 59 SE5 30.18F MANTEO SUNNY N/A N/A N/A S13 30.19F $$ NCZ045>047-081-094-103-104-231600- CENTRAL COAST CITY SKY/WX TMP DP RH WIND PRES REMARKS FRISCO SUNNY 80 69 69 SE12 30.19F $$ NCZ095-097-098-100-101-231600- SOUTHERN COAST CITY SKY/WX TMP DP RH WIND PRES REMARKS BEAUFORT SUNNY 79 67 66 SE10 30.16F CEDAR ISLAND NOT AVBL JACKSONVILLE MOSUNNY 79 65 62 SE17 30.14F PINEY ISLAND N/A N/A N/A N/A SE15 30.16F WILMINGTON PTSUNNY 78 65 63 S13G26 30.13F $$ NCZ011>013-027>030-043-044-078>080-089-090>093-098-231600- COASTAL PLAIN CITY SKY/WX TMP DP RH WIND PRES REMARKS AHOSKIE MOSUNNY 73 64 73 SE7 30.16F CLINTON PTSUNNY 77 66 68 SE8 30.11F ELIZABETHTOWN NOT AVBL GOLDSBORO SUNNY 78 65 64 SE15G21 30.11F GREENVILLE MOSUNNY 77 64 65 S9G18 30.15F HAVELOCK MOSUNNY 80 67 64 S13G21 30.17F KENANSVILLE SUNNY 79 63 57 SE12G20 30.13F KINSTON SUNNY 79 66 65 SE16G23 30.14F NEW BERN MOSUNNY 77 67 71 SE8 30.16F RICHLANDS MOSUNNY 79 64 60 SE14G22 30.14F ROCKY MOUNT PTSUNNY 76 65 68 SE10G18 30.13F WASHINGTON SUNNY 78 64 63 SE12G20 30.16F WHITEVILLE CLOUDY 75 68 79 SE9 30.10F $$ AMZ130-135-150-152-154-156-158-170-250-252-270-ANZ085-086-088-633-658-670-231600- MARINE OBSERVATIONS STATION/POSITION TIME TEMP WIND PRES WAVE SWELL AIR SEA DIR/SP/G HT/PER HT/PER (UTC) (F) (DEG/KT/KT) (MB) (FT/S) (FT/S) CHESAPEAKE LIGHT NOT AVBL 64 E VA BEACH 1450 72 69 160/ 10/ 14 1023.7 3/ 8 3/ 8 DUCK 1454 72 70 130/ 10/ 12 1022.0 2 E DUCK 1500 71 N/A 3/ 8 OREGON INLET 1448 76 71 130/ 8/ 11 1022.5 13E OREGON INLT 1448 73 N/A 3/ 9 2/ 9 HATTERAS CG 1454 77 73 140/ 9/ 14 1022.1 DIAMOND BUOY 1450 78 81 130/ 14/ 16 1022.1 3/ 8 2/ 8 CAPE LOOKOUT 1500 75 150/ 8/ 9 1021.1 BEAUFORT LAB 1454 77 73 150/ 11/ 13 1021.4 30 SE NEW RVR IN 1508 78 160/ 16/ 21 1020.6 30 SE NEW RVR IN NOT AVBL 27 SE WRIGHTSVLE 1408 77 76 150/ 17/ 23 1021.0 5 SE WRIGHTSVLE 1508 76 74 150/ 16/ 27 1020.2 225 S CAPE HAT 1450 78 80 120/ 16/ 17 1022.0 5/ 5 2/ 8 41 SE CHARLESTON 1510 79 80 140/ 19/ 25 1018.0 $$

USA.gov is the U.S. government's official web portal to all federal, state and local government web resources and services.